Weather observations for the past three days for
Belen Regional Airport
Imperial (Metric)
Date Time (mdt) Wind (mph) Vis. (mi.) Weather Sky Cond. Temperature (ºF) Relative Humidity Wind Chill (°F) Heat Index (°F) Pressure Precipitation (in)
Air Dwpt 6 hour altimeter (in) sea level (mb) 1 hr 3 hr 6 hr
Max. Min.
18 02:35 SW 6 10.00 Light Rain OVC110 68.5 60.3 75% 30.33 0.0
18 02:15 SW 8 10.00 Light Rain SCT050 SCT080 OVC110 68.7 60.4 75% 30.33 0.0
18 01:55 S 7 10.00 Mostly Cloudy SCT050 SCT065 BKN110 69.3 59.7 72% 30.33 0.0
18 01:35 S 7 10.00 Partly Cloudy SCT120 69.1 60.3 74% 30.33 0.0
18 01:15 S 5 10.00 Fair CLR 69.3 59.5 71% 30.35 0.0
18 00:55 Calm 10.00 Partly Cloudy SCT120 69.8 58.8 68% 30.36 0.0
18 00:35 S 9 10.00 Fair CLR 69.8 58.8 68% 30.36 0.0
18 00:15 S 9 10.00 Fair CLR 70 59.4 69% 30.37 0.0
17 23:55 N 9 10.00 Partly Cloudy SCT110 70.9 57.2 93.7 67.8 62% 30.38 0.0 0.36
17 23:35 N 6 G 9 10.00 Mostly Cloudy BKN100 BKN120 70.9 57 62% 30.39 0.0
17 23:15 NW 12 10.00 Partly Cloudy SCT110 70.9 57.6 63% 30.39 0.0
17 22:55 W 14 G 18 10.00 Mostly Cloudy BKN120 70.7 58.1 65% 30.38 0.0
17 22:35 W 13 G 20 10.00 Mostly Cloudy BKN120 71.2 58.5 64% 30.36 0.0
17 22:15 NW 8 10.00 Mostly Cloudy BKN120 73.6 55.6 53% 30.32 0.0
17 21:55 SE 15 G 24 10.00 Mostly Cloudy BKN120 73.9 53.1 48% 30.27 0.0
17 21:35 SE 22 G 31 10.00 Mostly Cloudy and Breezy SCT095 BKN120 73.4 53.6 50% 30.25 0.0
17 21:15 SE 20 G 33 10.00 Light Rain OVC110 70 57.2 64% 30.25 0.0
17 20:55 SE 24 G 33 10.00 Overcast and Breezy OVC110 68.5 58.6 71% 30.26 0.0 0.36
17 20:35 E 24 G 32 10.00 Thunderstorm Light Rain and Breezy OVC110 68.9 59 71% 30.28 0.0
17 20:15 E 18 G 24 10.00 Overcast OVC110 68.9 60.1 74% 30.28 0.0
17 19:55 E 20 G 26 10.00 Light Rain SCT021 SCT060 OVC110 68.9 60.4 75% 30.26 0.0 0.16
17 19:35 E 17 10.00 Thunderstorm Light Rain SCT021 BKN060 OVC080 71.1 61.2 71% 30.28 0.0 0.15
17 19:15 E 5 G 12 3.00 Thunderstorm Rain in Vicinity SCT018 BKN048 OVC065 71.1 58.3 64% 30.27 0.0 0.11
17 18:55 SW 18 G 39 2.00 Thunderstorm Heavy Rain SCT016 BKN028 OVC080 69.1 57 66% 30.25 0.0 0.2
17 18:35 SW 23 G 30 10.00 Thunderstorm Light Rain in Vicinity and Breezy BKN110 85.6 52.2 32% 84 30.21 0.0
17 18:15 SE 20 G 26 10.00 Thunderstorm in Vicinity SCT110 90 45 21% 86 30.15 0.0
17 17:55 SE 12 G 17 10.00 Fair CLR 93.9 41.7 95.9 88 16% 90 30.15 0.0
17 17:35 SE 8 10.00 Fair CLR 95.5 42.1 16% 91 30.14 0.0
17 17:15 E 14 G 22 10.00 Fair CLR 95.7 42.4 16% 91 30.14 0.0
17 16:55 E 12 G 20 10.00 Partly Cloudy SCT100 94.6 42.4 16% 90 30.14 0.0
17 16:35 E 13 G 23 10.00 Partly Cloudy SCT100 95.7 42.8 16% 92 30.14 0.0
17 16:15 Calm 10.00 Fair CLR 95.4 41 15% 91 30.15 0.0
17 15:55 N 5 10.00 Fair CLR 94.5 40.8 15% 90 30.16 0.0
17 15:35 SE 7 10.00 Fair CLR 95.2 41.5 16% 91 30.17 0.0
17 15:15 E 3 10.00 Fair CLR 94.1 40.6 16% 90 30.18 0.0
17 14:55 S 5 10.00 Fair CLR 94.3 41.5 16% 90 30.18 0.0
17 14:35 E 3 10.00 Fair CLR 93.9 41.4 16% 90 30.2 0.0
17 14:15 SW 5 10.00 Fair CLR 93 40.3 16% 89 30.2 0.0
17 13:55 S 9 10.00 Fair CLR 93.2 40.3 16% 89 30.21 0.0
17 13:35 SE 5 10.00 Fair CLR 91.4 40.6 17% 87 30.23 0.0
17 13:15 SE 5 G 9 10.00 Fair CLR 92.5 40.3 16% 88 30.23 0.0
17 12:55 SE 6 10.00 Fair CLR 90.7 42.4 19% 87 30.24 0.0
17 12:15 SE 7 10.00 Fair CLR 89.8 44.2 21% 86 30.25 0.0
17 11:55 NE 7 10.00 Fair CLR 88 44.8 88.2 70.7 22% 85 30.25 0.0
17 11:35 Calm 10.00 Fair CLR 86.5 44.6 23% 83 30.25 0.0
17 11:15 N 8 10.00 Fair CLR 86.7 44.1 23% 84 30.25 0.0
17 10:55 N 10 10.00 Fair CLR 86.9 43.3 22% 84 30.25 0.0
17 10:35 N 8 10.00 Fair CLR 87.1 43.7 22% 84 30.25 0.0
17 09:55 NW 12 G 16 10.00 Fair CLR 85.3 44.8 24% 83 30.25 0.0
17 09:35 NW 13 10.00 Fair CLR 83.1 45.1 26% 81 30.25 0.0
17 09:15 NW 9 10.00 Fair CLR 83.5 44.8 26% 81 30.25 0.0
17 08:55 NW 9 10.00 Fair CLR 81.9 45.3 28% 80 30.25 0.0
17 08:35 W 8 10.00 Fair CLR 80.6 45.5 29% 79 30.25 0.0
17 08:15 NW 12 10.00 Fair CLR 78.8 45.7 31% 79 30.24 0.0
17 07:55 NW 12 10.00 Fair CLR 78.1 45.1 31% 78 30.23 0.0
17 07:35 NW 8 10.00 Fair CLR 77.2 45.1 32% 78 30.23 0.0
17 07:15 NW 9 10.00 Fair CLR 75 45 34% 77 30.22 0.0
17 06:55 NW 8 10.00 Fair CLR 72.7 45.1 37% 30.22 0.0
17 06:35 NW 8 10.00 Fair CLR 71.4 45.7 40% 30.21 0.0
17 06:15 NW 8 10.00 Fair CLR 71.2 44.8 39% 30.21 0.0
17 05:55 NW 7 10.00 Fair CLR 72.5 44.2 83.3 72.5 36% 30.2 0.0
17 05:35 Calm 10.00 Fair CLR 74.7 43.2 32% 30.19 0.0
17 05:15 SE 7 10.00 Fair CLR 78.1 42.4 28% 78 30.19 0.0
17 04:55 SE 9 10.00 Fair CLR 78.1 41.9 28% 78 30.18 0.0
17 04:35 S 7 10.00 Fair CLR 77.5 42.8 29% 78 30.17 0.0
17 04:15 SE 6 10.00 Fair CLR 78.3 42.8 28% 78 30.16 0.0
17 03:55 SE 6 10.00 Fair CLR 78.3 42.8 28% 78 30.17 0.0
17 03:35 SE 9 10.00 Fair CLR 78.3 42.8 28% 78 30.16 0.0
17 03:15 SE 7 10.00 Fair CLR 79.7 41.5 26% 79 30.17 0.0
17 02:55 SE 7 10.00 Partly Cloudy SCT090 81.1 41.4 24% 80 30.17 0.0
17 02:35 SE 6 G 12 10.00 Mostly Cloudy SCT090 BKN110 80.8 42.4 26% 79 30.17 0.0
17 02:15 SE 8 10.00 Light Rain BKN110 81.9 43.7 26% 80 30.18 0.0
17 01:55 E 5 10.00 Partly Cloudy SCT090 SCT120 80.4 42.6 26% 79 30.16 0.0
17 01:35 E 3 10.00 Partly Cloudy SCT090 SCT120 82.6 42.1 24% 80 30.16 0.0
17 01:15 E 7 10.00 Fair CLR 81.7 42.4 25% 80 30.17 0.0
17 00:55 Calm 10.00 Fair CLR 81.7 43 25% 80 30.16 0.0
17 00:35 SE 6 10.00 Fair CLR 81.7 42.6 25% 80 30.15 0.0
17 00:15 NE 7 10.00 Fair CLR 81.3 42.8 26% 80 30.14 0.0
16 23:55 NE 9 10.00 Fair CLR 81 43 97.5 80.8 26% 80 30.12 0.0
16 23:35 NE 9 10.00 Fair CLR 81 42.6 26% 79 30.12 0.0
16 23:15 N 12 G 18 10.00 Fair CLR 82.6 41.9 24% 80 30.12 0.0
16 22:55 NE 13 10.00 Partly Cloudy SCT075 SCT090 83.7 42.1 23% 81 30.12 0.0
16 22:35 NE 17 10.00 Partly Cloudy SCT075 SCT100 85.1 41 21% 82 30.14 0.0
16 22:15 N 17 10.00 Fair CLR 86.9 38.1 18% 83 30.12 0.0
16 21:55 N 17 G 23 10.00 Fair CLR 87.4 37.4 17% 84 30.11 0.0
16 21:35 N 10 G 20 10.00 Fair CLR 85.1 41.7 22% 82 30.1 0.0
16 21:15 N 17 10.00 Fair CLR 86.4 39.9 19% 83 30.09 0.0
16 20:55 NW 20 G 24 10.00 Fair CLR 88.9 37.4 16% 85 30.08 0.0
16 20:35 W 7 10.00 Fair CLR 86.5 36.1 17% 83 30.08 0.0
16 20:15 Calm 10.00 Fair CLR 90.3 35.8 14% 86 30.06 0.0
16 19:55 SE 3 10.00 Fair CLR 92.5 35.6 13% 88 30.05 0.0
16 19:35 SE 3 10.00 Fair CLR 94.1 34 12% 89 30.04 0.0
16 19:15 SE 7 10.00 Fair CLR 95.7 34.2 11% 91 30.04 0.0
16 18:55 SE 10 10.00 Fair CLR 96.3 35.1 12% 91 30.04 0.0
16 18:35 E 12 10.00 Fair CLR 97 36.3 12% 92 30.04 0.0
16 18:15 SE 15 10.00 Fair CLR 97.5 36.5 12% 93 30.04 0.0
16 17:55 SE 14 G 18 10.00 Fair CLR 97.3 37.2 100.4 90.3 12% 93 30.04 0.0
16 17:35 SE 14 10.00 Fair CLR 97 37.8 13% 92 30.04 0.0
16 17:15 SE 12 G 17 10.00 Fair CLR 99.5 38.1 12% 95 30.05 0.0
16 16:55 SE 5 10.00 Fair CLR 98.4 37.4 12% 94 30.05 0.0
16 16:35 E 3 10.00 Fair CLR 100.2 36.9 11% 95 30.05 0.0
16 16:15 E 5 10.00 Fair CLR 98.8 34.3 10% 94 30.06 0.0
16 15:55 SE 7 10.00 Fair CLR 98.8 35.2 11% 94 30.06 0.0
16 15:35 E 8 10.00 Fair CLR 99.7 36 11% 95 30.07 0.0
16 15:15 NE 7 10.00 Fair CLR 99.1 36.7 11% 94 30.08 0.0
16 14:55 S 5 10.00 Fair CLR 99 33.4 10% 94 30.09 0.0
16 14:35 SW 5 10.00 Fair CLR 97.5 36.9 12% 93 30.1 0.0
16 14:15 S 6 10.00 Fair CLR 98.4 34.5 11% 93 30.11 0.0
16 13:55 SE 6 10.00 Fair CLR 97.3 40.1 14% 93 30.11 0.0
16 13:35 E 5 10.00 Fair CLR 96.8 40.3 14% 92 30.12 0.0
16 13:15 S 8 10.00 Fair CLR 94.3 40.5 15% 90 30.13 0.0
16 12:55 SE 5 10.00 Fair CLR 94.3 40.5 15% 90 30.14 0.0
16 12:35 SE 3 10.00 Fair CLR 92.3 41 17% 88 30.15 0.0
16 12:15 S 3 10.00 Fair CLR 91.8 40.3 17% 88 30.15 0.0
16 11:55 Calm 10.00 Fair CLR 90.1 41.5 90.3 71.6 18% 86 30.16 0.0
16 11:35 Calm 10.00 Fair CLR 89.4 40.8 18% 86 30.16 0.0
16 11:15 Calm 10.00 Fair CLR 89.1 41.7 19% 85 30.16 0.0
16 10:55 W 5 10.00 Fair CLR 87.4 39.9 19% 84 30.17 0.0
16 10:35 E 5 10.00 Fair CLR 86.7 41.5 20% 83 30.17 0.0
16 10:15 Calm 10.00 Fair CLR 85.6 40.5 20% 83 30.17 0.0
16 09:55 Calm 10.00 Fair CLR 85.3 41.5 21% 82 30.17 0.0
16 09:35 Calm 10.00 Fair CLR 83.5 41.2 22% 81 30.16 0.0
16 09:15 N 3 10.00 Fair CLR 82.4 42.4 24% 80 30.16 0.0
16 08:55 NE 3 10.00 Fair CLR 81.1 43.2 26% 80 30.17 0.0
16 08:35 Calm 10.00 Fair CLR 80.2 43.7 27% 79 30.16 0.0
16 08:15 Calm 10.00 Fair CLR 78.6 43.2 28% 78 30.16 0.0
16 07:55 Calm 10.00 Fair CLR 77.4 43.2 30% 78 30.16 0.0
16 07:35 W 3 10.00 Fair CLR 76.1 43.7 32% 77 30.16 0.0
16 07:15 W 5 10.00 Fair CLR 74.7 43.7 33% 30.15 0.0
16 06:55 W 7 10.00 Fair CLR 72.7 43.3 35% 30.15 0.0
16 06:35 SW 6 10.00 NULL NULL 72.9 42.8 34% 30.14 0.0
16 06:15 Calm 0.00 NULL NULL 71.6 42.3 35% 30.13 0.0
16 05:35 SW 8 10.00 NULL NULL 72.9 42.3 33% 30.12 0.0
16 05:15 SW 6 10.00 Fair CLR 70.2 41.9 36% 30.12 0.0
16 04:55 SW 3 10.00 Fair CLR 71.1 42.1 35% 30.12 0.0
16 04:35 S 8 10.00 Fair CLR 72 42.1 34% 30.11 0.0
16 04:15 SW 7 10.00 Fair CLR 72.7 42.3 34% 30.1 0.0
16 03:55 SW 9 10.00 Fair CLR 76.3 42.3 30% 77 30.1 0.0
16 03:35 SW 9 10.00 Fair CLR 76.3 41.4 29% 77 30.1 0.0
16 03:15 SW 10 10.00 Fair CLR 78.1 40.3 26% 78 30.11 0.0
16 02:55 S 9 10.00 Fair CLR 78.4 38.8 24% 78 30.11 0.0
16 02:35 S 10 10.00 Fair CLR 76.8 39.2 26% 77 30.12 0.0
16 02:15 S 5 10.00 Fair CLR 74.8 39 27% 30.12 0.0
16 01:55 S 5 10.00 Fair CLR 77.2 38.5 25% 77 30.12 0.0
16 01:35 Calm 10.00 Fair CLR 77.5 38.1 24% 78 30.12 0.0
16 01:15 NW 7 10.00 Fair CLR 75.9 38.5 26% 77 30.12 0.0
16 00:55 S 3 10.00 Fair CLR 76.8 38.5 25% 77 30.11 0.0
16 00:35 S 7 10.00 Fair CLR 78.3 37.9 23% 78 30.11 0.0
16 00:15 S 7 10.00 Fair CLR 78.3 37.6 23% 78 30.1 0.0
15 23:55 S 9 10.00 Fair CLR 80.8 36.7 97.9 78.6 21% 79 30.1 0.0
15 23:35 S 12 10.00 Fair CLR 82.4 35.8 19% 80 30.09 0.0
15 23:15 S 9 10.00 NULL NULL 80.1 36.1 21% 79 30.09 0.0
15 22:35 S 7 10.00 Fair CLR 78.6 35.6 21% 78 30.09 0.0
15 22:15 S 7 10.00 Fair CLR 79.9 35.1 20% 79 30.08 0.0
15 21:55 S 8 0.00 NULL NULL 81.7 33.1 17% 80 30.08 0.0
15 21:35 S 7 10.00 Fair CLR 81.1 34.2 18% 79 30.07 0.0
15 21:15 S 6 10.00 Fair CLR 83.8 33.1 16% 81 30.07 0.0
15 20:55 S 5 10.00 Fair CLR 86.4 32 14% 83 30.07 0.0
15 20:35 S 6 10.00 Fair CLR 86.7 32.5 14% 83 30.06 0.0
15 20:15 S 6 10.00 Fair CLR 89.6 32.7 13% 86 30.05 0.0
15 19:55 SW 3 10.00 Fair CLR 92.3 32 12% 88 30.05 0.0
15 19:35 SW 3 10.00 Fair CLR 95 31.6 11% 90 30.04 0.0
15 19:15 S 6 10.00 Fair CLR 96.1 31.3 10% 91 30.04 0.0
15 18:55 S 7 10.00 Fair CLR 96.8 30.7 10% 92 30.04 0.0
15 18:35 W 6 10.00 Fair CLR 97.2 31.3 10% 92 30.05 0.0
15 18:15 SE 6 10.00 Fair CLR 97.2 31.6 10% 92 30.05 0.0
15 17:55 S 6 10.00 Fair CLR 97.9 32.2 99.7 90.9 10% 93 30.06 0.0
15 17:35 E 3 10.00 Fair CLR 97.9 32 10% 93 30.07 0.0
15 17:15 SW 9 10.00 Fair CLR 98.2 32.5 10% 93 30.07 0.0
15 16:55 S 13 G 22 10.00 Fair CLR 99.5 33.1 10% 94 30.08 0.0
15 16:35 SE 10 10.00 Fair CLR 97.7 32.9 10% 93 30.09 0.0
15 16:15 SE 6 10.00 Fair CLR 97.7 32.2 10% 93 30.1 0.0
15 15:55 SE 7 10.00 Fair CLR 97.5 32.2 10% 92 30.11 0.0
15 15:35 SE 12 G 21 10.00 Fair CLR 98.8 32.5 10% 94 30.12 0.0
15 15:15 S 8 10.00 Fair CLR 98.2 32.5 10% 93 30.13 0.0
15 14:55 N 5 10.00 Fair CLR 97 32.5 10% 92 30.14 0.0
15 14:35 SE 12 G 16 10.00 Fair CLR 97.7 32.5 10% 93 30.15 0.0
15 14:15 NW 5 10.00 Fair CLR 96.1 32 10% 91 30.16 0.0
15 13:55 SW 5 10.00 Fair CLR 95.9 32 10% 91 30.17 0.0
15 13:35 S 8 10.00 Fair CLR 95.5 32.7 11% 91 30.17 0.0
15 13:15 Calm 10.00 Fair CLR 95 32 11% 90 30.18 0.0
15 12:55 Calm 10.00 Fair CLR 93.7 33.1 12% 89 30.19 0.0
15 12:35 Calm 10.00 Fair CLR 94.3 37.2 14% 90 30.2 0.0
15 12:15 Calm 10.00 Fair CLR 92.8 38.3 15% 89 30.21 0.0
15 11:55 W 3 10.00 Fair CLR 90.5 38.3 90.5 62.4 16% 86 30.21 0.0
15 11:35 W 3 10.00 Fair CLR 90 38.5 16% 86 30.22 0.0
15 11:15 SW 3 10.00 Fair CLR 88.5 39.7 18% 85 30.23 0.0
15 10:55 Calm 10.00 Fair CLR 87.1 40.1 19% 84 30.23 0.0
15 10:35 Calm 10.00 Fair CLR 86.7 40.3 19% 83 30.23 0.0
15 10:15 E 5 10.00 Fair CLR 86 39.9 20% 83 30.23 0.0
15 09:55 SE 6 10.00 Fair CLR 84.9 39.6 20% 82 30.24 0.0
15 09:35 Calm 10.00 Fair CLR 83.5 39.4 21% 81 30.24 0.0
15 09:15 E 5 10.00 Fair CLR 82.8 39.4 21% 80 30.25 0.0
15 08:55 NW 3 10.00 Fair CLR 80.6 38.3 22% 79 30.25 0.0
15 08:35 Calm 10.00 Fair CLR 79 38.5 23% 78 30.25 0.0
15 08:15 Calm 10.00 Fair CLR 77.7 39 25% 78 30.25 0.0
15 07:55 Calm 10.00 Fair CLR 76.1 38.8 26% 77 30.24 0.0
15 07:35 Calm 10.00 Fair CLR 72.9 39.2 30% 30.23 0.0
15 07:15 Calm 10.00 Fair CLR 68.9 37.9 32% 30.23 0.0
15 06:55 Calm 10.00 Fair CLR 66.2 36.7 34% 30.23 0.0
15 06:35 Calm 10.00 Fair CLR 63.9 34.9 34% 30.22 0.0
15 06:15 NW 6 10.00 Fair CLR 62.8 34.7 35% 30.22 0.0
15 05:55 Calm 10.00 Fair CLR 65.5 35.2 78.4 63 33% 30.22 0.0
15 05:35 NE 3 10.00 Fair CLR 66.4 35.1 31% 30.22 0.0
15 05:15 NE 5 10.00 Fair CLR 63 36.5 38% 30.22 0.0
15 04:55 Calm 10.00 Fair CLR 65.3 35.6 33% 30.21 0.0
15 04:35 Calm 10.00 Fair CLR 68.7 34 28% 30.21 0.0
15 04:15 Calm 10.00 Fair CLR 66 34.7 31% 30.21 0.0
15 03:55 Calm 10.00 Fair CLR 66 33.8 30% 30.21 0.0
15 03:35 Calm 10.00 Fair CLR 68.5 33.8 28% 30.21 0.0
15 03:15 Calm 10.00 Fair CLR 69.4 33.3 26% 30.22 0.0
Date Time (mdt) Wind (mph) Vis. (mi.) Weather Sky Cond. Air Dwpt Max. Min. Relative Humidity Wind Chill (°F) Heat Index (°F) altimeter (in) sea level (mb) 1 hr 3 hr 6 hr
6 hour
Temperature (ºF) Pressure Precipitation (in)